COSMOS 2491 DEB, 44987

Orbit data source: Space-Track

COSMOS 2491 DEB, 44987 is space debris in LEO originally from a launch on Wed, 25 Dec 2013 UTC launched from the Plesetsk Missile And Space Complex (PKMTR). Debris objects in space refer to the collection of defunct objects orbiting the Earth. Examples of debris include non-operational satellites, rocket bodies, and fragments generated from explosions, collisions, or faulty payload assembly.

Loading next visibility...
Identifier
44987, 2013-076H
Orbit
LEO
Country
Flag of CISCIS
Related business
Manufacturer
TsNIIKhM
Mission
Spacecraft
Bus & Motor
Unknown
Mass
Unknown
Launch date (UTC)
2013-12-25 (12 years ago)
Launch vehicle
Unknown
Launch site
Plesetsk Missile And Space Complex (PKMTR)
Object type
Payload
Rocket body
Debris
Shape & HBR
Unknown shape, 0.1 m
Radar Cross Section
Small (<0.1 m²)

Expand to show TLE details & history
Last TLE update: 3 days ago

TLE from 3 days ago
0 COSMOS 2491 DEB
1 44987U 13076H   26118.74145553  .00003528  00000-0  16756-1 0  9995
2 44987  82.4157 126.7752 0129606 200.6525 158.9306 12.71671921292007
Epoch: 2026-04-28T17:47Z
TLE epoch observation values (Epoch: 2026-04-28T17:47:41.757Z)
Latitude
-0.00002°
Longitude
3.1388°
Altitude
1,471.827 km
Speed
7.084 km/s
True Right ascension
08h 27m 06s
True Declination
0° 00' 00"
Sunlit
Object was in daylight at epoch
Visualization orbit readout
Latitude
Unknown
Longitude
Unknown
Altitude
Unknown
Speed
Unknown
Apparent Right ascension
Unknown
Apparent Declination
Unknown
Sunlit
N/A
Visualization observer readout
Local Sidereal Time
18:11:36
Azimuth
Unknown
Elevation
Unknown
Doppler factor
Unknown
Orbital elements
Apogee altitude
1,472.902 km
Perigee altitude
1,271.998 km
Semi-major axis
7,750.587 km
Eccentricity
0.01296
Inclination
82.4157°
RAAN
126.7752°
Arg. of periapsis
200.6525°
True anomaly
159.45655°
Mean anomaly
158.9306°
Eccentric anomaly
159.19437°
Mean motion
3.18084 °/min
Orbital period
113.18 mins
BSTAR
0.016756
Loading maneuver chart data...
Computing Atmospheric mass density...
Loading historical data...
Loading historical data...
Loading historical data...
Loading historical data...
Loading historical data...
Loading historical data...
Loading historical data...

Documentation

Showing up to 5 results
|